Dewpoint
47 47 47 48 48 48 47 48 46 47 47 46 46 46 47 48 50 53 53 52 54 56
47 47 47 47 47 46 45 43 42 44 44 44 44 44 45 46 48 50 51 52 52 53
45 45 45 45 44 44 43 42 42 42 42 42 42 42 42 44 46 47 49 49 49 49
43 43 43 43 42 42 41 41 41 41 40 40 40 41 41 42 42 43 46 46 46 45
42 42 41 41 41 40 40 40 39 40 39 40 40 40 40 40 41 42 43 43 44 43
41 41 40 40 39 39 39 39 39 39 39 38 38 39 39 40 40 40 39 39 39 39
40 40 39 39 39 39 39 38 38 38 38 38 37 38 38 39 39 39 39 39 39 39
39 39 39 39 39 39 39 38 38 38 38 37 37 37 38 38 38 38 36 37 39 39
39 39 39 39 38 38 38 38 38 38 37 37 36 38 38 38 38 36 35 34 33 34
39 38 39 38 38 38 37 38 38 37 37 36 38 39 38 38 36 35 34 33 31 29
39 38 38 38 37 37 37 37 37 37 36 36 37 37 37 36 33 32 31 30 30 28
38 38 38 37 37 36 37 37 36 37 37 35 34 34 34 30 28 26 24 23 24 26
38 38 37 37 37 36 36 35 35 34 35 35 33 32 28 26 25 22 20 19 25 27
38 38 37 37 37 35 35 34 33 32 32 31 30 29 27 25 16 13 14 15 17 25
Wind_Speed
11 5 8 7 6 5 5 7 6 4 3 3 4 5 6 6 7 9 7 8 8 8
12 11 12 9 7 6 5 4 3 1 1 3 3 4 6 7 8 6 4 4 6 5
8 13 11 8 7 6 4 3 1 2 1 2 3 3 5 6 5 6 5 1 4 2
9 10 8 7 6 4 2 1 1 2 2 2 2 5 5 5 3 5 4 1 0 1
10 8 7 6 6 4 0 1 1 3 3 3 2 3 4 4 2 3 2 1 2 2
9 7 6 7 6 3 2 3 1 1 3 3 3 4 3 3 3 7 7 6 4 3
8 7 6 7 5 4 4 2 2 4 5 4 4 5 6 3 5 7 7 7 6 7
8 7 7 6 5 3 1 1 3 2 1 2 2 2 4 1 3 7 6 7 8 8
11 10 9 8 7 4 2 1 1 1 0 1 1 1 2 4 7 7 8 10 8 8
12 10 10 8 5 4 4 3 3 3 2 2 4 4 4 6 6 8 9 7 5 5
12 11 11 8 5 5 5 6 5 5 4 4 4 6 5 8 8 8 7 5 4 5
12 12 11 10 8 7 7 6 6 5 6 7 5 5 7 8 9 7 5 2 2 4
11 11 11 10 9 7 7 8 7 7 6 6 8 8 7 7 6 5 5 4 3 3
9 9 10 9 7 8 9 8 9 9 8 7 7 9 9 7 3 3 6 5 4 4
Wind_Direction
123 146 106 111 105 89 86 91 80 51 4 344 347 331 317 300 284 269 260 266 286 297
147 132 116 99 101 103 101 92 70 70 327 324 325 323 316 306 307 317 320 329 309 282
126 118 117 124 125 117 112 109 40 313 328 321 321 316 319 308 327 341 316 75 302 296
144 119 132 121 118 114 78 117 348 325 335 323 339 338 328 318 357 320 313 1 338 348
138 127 121 129 123 105 186 128 146 342 313 309 344 340 330 330 356 329 355 92 168 142
146 148 152 135 121 108 39 344 28 219 288 6 18 341 326 2 46 68 57 54 67 43
157 151 141 120 114 93 60 1 7 46 50 32 18 359 346 32 84 84 75 70 65 64
161 145 129 129 127 126 113 53 75 22 41 335 326 303 317 84 115 121 113 86 83 86
164 169 172 162 156 161 178 230 159 151 174 248 273 126 250 149 135 130 126 118 104 90
173 178 168 158 169 207 221 189 207 167 185 161 129 126 143 128 130 130 128 127 123 105
175 180 167 160 193 209 208 213 204 187 186 159 142 130 126 121 116 118 118 121 127 128
176 178 170 171 199 205 199 199 189 170 171 171 141 144 148 136 124 128 126 140 94 87
176 179 178 180 193 188 192 199 182 184 182 192 166 178 170 160 155 168 168 181 146 107
170 173 171 169 169 188 191 184 190 197 196 198 186 192 194 194 197 188 184 192 191 181